Location: Caltech
(34.1382°N, 118.1253°W)
Time: 19:55:09
(UTC-07:00)

RS-15 - Visible Passes

Search period start: 15 September 2014 00:00
Search period end: 25 September 2014 00:00
Orbit: 1899 x 2145 km, 64.8° (Epoch: 12 September)

Date Brightness Start Highest point End Pass type
(mag) Time Alt. Az. Time Alt. Az. Time Alt. Az.
15 Sep 9.8 03:10:48 10° SE 03:16:55 17° E 03:22:56 10° ENE visible
15 Sep 8.0 05:16:30 10° SSW 05:27:39 87° ESE 05:38:37 10° NNE visible
16 Sep 8.2 04:40:45 10° SSW 04:51:44 67° ESE 05:02:29 10° NE visible
17 Sep 8.5 04:05:51 12° S 04:15:55 51° ESE 04:26:13 10° NE visible
18 Sep 8.9 03:32:20 16° SSE 03:40:11 37° ESE 03:49:44 10° NE visible
18 Sep 8.1 05:41:15 10° SW 05:52:01 55° NW 06:02:41 10° NNE visible
19 Sep 9.3 02:58:41 17° SE 03:04:33 26° ESE 03:12:54 10° NE visible
19 Sep 7.9 05:06:31 16° SW 05:15:51 71° WNW 05:26:46 10° NNE visible
20 Sep 9.6 02:24:54 14° SE 02:29:00 18° E 02:35:25 10° ENE visible
20 Sep 7.8 04:32:44 27° SSW 04:39:48 90° ESE 04:50:46 10° NNE visible
21 Sep 9.9 01:51:32 10° ESE 01:53:33 11° E 01:55:33 10° E visible
21 Sep 8.0 03:58:50 38° S 04:03:52 70° ESE 04:14:40 10° NNE visible
21 Sep 8.6 06:07:35 10° WSW 06:17:01 32° NW 06:26:28 10° NNE visible
22 Sep 8.3 03:24:51 42° SSE 03:28:02 53° ESE 03:38:26 10° NE visible
22 Sep 8.4 05:32:40 18° WSW 05:40:32 41° NW 05:50:40 10° NNE visible
23 Sep 8.7 02:50:47 37° ESE 02:52:18 39° ESE 03:01:59 10° NE visible
23 Sep 8.1 04:58:35 30° WSW 05:04:12 53° NW 05:14:49 10° NNE visible
24 Sep 9.1 02:16:38 28° ESE 02:16:39 28° ESE 02:25:12 10° NE visible
24 Sep 7.8 04:24:26 48° WSW 04:28:01 68° WNW 04:38:55 10° NNE visible
